Regional Weather Roundup
Issued by NWS

Home | Current Version | Previous Version | Text Only | Print | Product List | Glossary Off
Versions: 1 2 3 4 5 6 7 8 9 10 11 12 13 14 15 16 17 18 19 20 21 22 23 24 25 26 27 28 29 30 31 32 33 34 35 36 37 38 39 40 41 42 43 44 45 46 47 48 49 50

000
ASUS43 KDMX 290807
RWRIA

WEATHER ROUNDUP FOR IOWA
NATIONAL WEATHER SERVICE DES MOINES IA
300 AM CDT SUN MAR 29 2015

NOTE: "FAIR" INDICATES FEW OR NO CLOUDS BELOW 12,000 FEET WITH NO
SIGNIFICANT WEATHER AND/OR OBSTRUCTIONS TO VISIBILITY.

* - THESE STATIONS ARE NOT NWS STATIONS...THUS NOT UNDER NWS
QUALITY CONTROL.  THEY ALSO DO NOT REPORT WEATHER SUCH
AS PRECIPITATION OR FOG.

IAZ001>003-012>014-020>022-031>034-043>046-290900-
   NORTHWEST IOWA

CITY           SKY/WX    TMP DP  RH WIND       PRES   REMARKS
CARROLL *      MOCLDY    39  30  70 S23G33    29.85F WCI  29
CHEROKEE *     CLOUDY    39  34  81 S17G25    29.81F WCI  30
DENISON *      MOCLDY    41  32  70 S18G26    29.85R
LE MARS *      MOCLDY    41  34  75 S23G33    29.77S
ORANGE CITY *  CLEAR     43  34  70 S26G35    29.76R
SHELDON *      MOCLDY    39  32  75 S18G24    29.76R WCI  30
SIOUX CITY     CLOUDY    45  33  63 S14G20    29.84S
SPENCER        CLOUDY    39  30  70 S23G32    29.74F WCI  28
STORM LAKE *   MIX PCPN  37  32  81 S25       29.78F WCI  26
$$

IAZ055>058-069>071-079>083-090>094-290900-
   SOUTHWEST IOWA

CITY           SKY/WX    TMP DP  RH WIND       PRES   REMARKS
ATLANTIC *     CLOUDY    41  30  65 S20G26    29.88F
AUDUBON *      CLEAR     39  30  70 S20G26    29.88F WCI  30
CLARINDA *     CLEAR     39  32  75 S12G18    29.95R WCI  32
COUNCIL BLFS * CLOUDY    41  34  75 S22G28    29.85F
CRESTON *      CLEAR     37  30  75 S17G24    29.92F WCI  28
HARLAN  *      MOCLDY    41  32  70 S15G23    29.93R
LAMONI         CLEAR     38  30  73 S12       29.96F WCI  30
RED OAK *      CLOUDY    41  32  70 S20G30    29.89F
SHENANDOAH *   PTCLDY    41  32  70 S16       29.90F
$$

IAZ047>049-059>061-072>074-084-290900-
   CENTRAL IOWA

CITY           SKY/WX    TMP DP  RH WIND       PRES   REMARKS
AMES           CLEAR     33  23  66 S15       29.94F WCI  23
ANKENY *       CLEAR     36  25  64 S15G23    29.96F WCI  26
CHARITON *     PTCLDY    36  27  69 S16       29.98F WCI  26
DES MOINES     PTCLDY    37  26  64 S16       29.97F WCI  28
GRINNELL*      CLEAR     32  21  64 SE16      29.99F WCI  21
KNOXVILLE *    CLEAR     34  23  64 S12       29.97F WCI  25
MARSHALLTOWN   CLEAR     32  20  61 S21       29.96F WCI  20
PELLA *        CLEAR     34  25  69 S13       30.01F WCI  25
PERRY *          N/A     36  30  80 S16       29.89F WCI  26
$$

IAZ004>006-015-016-023>025-035-036-290900-
   NORTH CENTRAL IOWA

CITY           SKY/WX    TMP DP  RH WIND       PRES   REMARKS
ALGONA *       PTCLDY    37  28  70 S30G38    29.85F WCI  25
CLARION *      CLEAR     34  27  75 S23G29    29.89F WCI  22
ESTHERVILLE    MOCLDY    36  28  73 S28G36    29.80F WCI  23
FORT DODGE *   CLEAR     37  25  60 S17G26    29.88F WCI  28
MASON CITY     CLEAR     32  22  66 S16       29.92F WCI  21
FOREST CITY *  CLEAR     32  25  74 S21       29.88F WCI  20
IOWA FALLS *     N/A     32  23  69 S18       29.94F WCI  20
$$

IAZ007>011-017>019-026>030-037>042-050>054-066-290900-
   NORTHEAST IOWA

CITY           SKY/WX    TMP DP  RH WIND       PRES   REMARKS
CEDAR RAPIDS   CLEAR     31  19  61 S16       30.04F WCI  20
CHARLES CITY * CLEAR     32  21  64 S22       29.96F WCI  19
CLINTON *      CLEAR     30  19  64 S12       30.15F WCI  21
DECORAH *      PTCLDY    32  19  59 S15G24    29.98F WCI  22
DUBUQUE        CLEAR     29  18  63 S20       30.06F WCI  16
MONTICELLO *   CLEAR     30  21  69 S15G22    30.07F WCI  19
OELWEIN *      CLEAR     32  19  59 S18G26    30.01F WCI  20
WATERLOO       CLEAR     32  19  58 S18       29.98F WCI  20
$$

IAZ064-065-067-068-078-290900-
   EAST CENTRAL IOWA

CITY           SKY/WX    TMP DP  RH WIND       PRES   REMARKS
DAVENPORT      PTCLDY    31  18  58 S16       30.11F WCI  20
IOWA CITY      CLEAR     30  20  66 SE12      30.09F WCI  20
MT. PLEASANT * CLEAR     32  21  64 SE15      30.10F WCI  22
MUSCATINE *    CLEAR     34  19  55 S15       30.12F WCI  24
QUAD CITIES    PTCLDY    30  18  60 SE10      30.12F WCI  21
$$

IAZ062-063-075>077-085>089-095>099-290900-
   SOUTHEAST IOWA

CITY           SKY/WX    TMP DP  RH WIND       PRES   REMARKS
BURLINGTON     CLEAR     34  19  54 S15       30.12F WCI  24
FAIRFIELD *    CLEAR     34  19  55 S16G24    30.07F WCI  23
FORT MADISON * CLEAR     32  21  64 S13G20    30.13S WCI  22
KEOKUK *       CLEAR     34  21  60 S8G15     30.12F WCI  27
OSKALOOSA *      N/A     32  21  64 S17       30.03F WCI  21
CENTERVILLE *  CLEAR     32  25  74 SE12      30.03F WCI  23
OTTUMWA        CLEAR     34  21  59 S15       30.04F WCI  24
WASHINGTON *   CLEAR     32  21  64 S15G21    30.07F WCI  22
$$

ABBREVIATIONS USED IN REMARKS
   TC - TEMPERATURES IN CELSIUS
  WCI - WIND CHILL INDEX
   HX - HEAT INDEX
  VSB - VISIBILITY
$$




USA.gov is the U.S. government's official web portal to all federal, state and local government web resources and services.